Time,TemperatureF,DewpointF,PressureIn,WindDirection,WindDirectionDegrees,WindSpeedMPH,WindSpeedGustMPH,Humidity,HourlyPrecipIn,Conditions,Clouds,dailyrainin,SolarRadiationWatts/m^2,SoftwareType,DateUTC
2013-02-28 00:01:00,29.0,-1.0,-100.00,North,4,12.0,19.0,27,0.00,,,0.02,0.000000,,2013-02-28 07:01:00,
2013-02-28 00:11:00,29.0,-1.0,-100.00,North,4,12.0,19.0,27,0.00,,,0.02,0.000000,,2013-02-28 07:11:00,
2013-02-28 00:21:00,29.0,-1.0,-100.00,North,4,12.0,19.0,27,0.00,,,0.02,0.000000,,2013-02-28 07:21:00,
2013-02-28 00:31:00,29.0,-1.0,-100.00,North,4,12.0,19.0,27,0.00,,,0.02,0.000000,,2013-02-28 07:31:00,
2013-02-28 01:01:00,29.0,-2.0,-100.00,NNE,14,9.0,21.0,25,0.00,,,0.02,0.000000,,2013-02-28 08:01:00,
2013-02-28 01:11:00,29.0,-2.0,-100.00,NNE,14,9.0,21.0,25,0.00,,,0.02,0.000000,,2013-02-28 08:11:00,
2013-02-28 01:21:00,29.0,-2.0,-100.00,NNE,14,9.0,21.0,25,0.00,,,0.02,0.000000,,2013-02-28 08:21:00,
2013-02-28 01:31:00,29.0,-2.0,-100.00,NNE,14,9.0,21.0,25,0.00,,,0.02,0.000000,,2013-02-28 08:31:00,
2013-02-28 01:53:00,29.0,-4.0,-100.00,North,7,4.0,14.0,23,0.00,,,0.02,0.000000,,2013-02-28 08:53:00,
2013-02-28 02:03:00,29.0,-4.0,-100.00,North,7,4.0,14.0,23,0.00,,,0.02,0.000000,,2013-02-28 09:03:00,
2013-02-28 02:11:00,29.0,-4.0,-100.00,North,7,4.0,14.0,23,0.00,,,0.02,0.000000,,2013-02-28 09:11:00,
2013-02-28 02:21:00,29.0,-4.0,-100.00,North,7,4.0,14.0,23,0.00,,,0.02,0.000000,,2013-02-28 09:21:00,
2013-02-28 02:31:00,29.0,-4.0,-100.00,North,7,4.0,14.0,23,0.00,,,0.02,0.000000,,2013-02-28 09:31:00,
2013-02-28 03:01:00,29.0,-4.0,-100.00,North,356,1.0,8.0,23,0.00,,,0.02,0.000000,,2013-02-28 10:01:00,
2013-02-28 03:11:00,29.0,-4.0,-100.00,North,356,1.0,8.0,23,0.00,,,0.02,0.000000,,2013-02-28 10:11:00,
2013-02-28 03:21:00,29.0,-4.0,-100.00,North,356,1.0,8.0,23,0.00,,,0.02,0.000000,,2013-02-28 10:21:00,
2013-02-28 03:31:00,29.0,-4.0,-100.00,North,356,1.0,8.0,23,0.00,,,0.02,0.000000,,2013-02-28 10:31:00,
2013-02-28 03:52:00,29.0,-4.0,-100.00,SSE,152,1.0,3.0,23,0.00,,,0.02,0.000000,,2013-02-28 10:52:00,
2013-02-28 04:01:00,29.0,-4.0,-100.00,SSE,152,1.0,3.0,23,0.00,,,0.02,0.000000,,2013-02-28 11:01:00,
2013-02-28 04:11:00,29.0,-4.0,-100.00,SSE,152,1.0,3.0,23,0.00,,,0.02,0.000000,,2013-02-28 11:11:00,
2013-02-28 04:21:00,29.0,-4.0,-100.00,SSE,152,1.0,3.0,23,0.00,,,0.02,0.000000,,2013-02-28 11:21:00,
2013-02-28 04:31:00,29.0,-4.0,-100.00,SSE,152,1.0,3.0,23,0.00,,,0.02,0.000000,,2013-02-28 11:31:00,
2013-02-28 04:52:00,32.0,-18.0,-100.00,WNW,302,6.0,13.0,10,0.00,,,0.02,0.000000,,2013-02-28 11:52:00,
2013-02-28 05:01:00,32.0,-18.0,-100.00,WNW,302,6.0,13.0,10,0.00,,,0.02,0.000000,,2013-02-28 12:01:00,
2013-02-28 06:01:00,32.0,-9.0,-100.00,North,0,8.0,14.0,16,0.00,,,0.02,0.000000,,2013-02-28 13:01:00,
2013-02-28 06:11:00,32.0,-9.0,-100.00,North,0,8.0,14.0,16,0.00,,,0.02,0.000000,,2013-02-28 13:11:00,
2013-02-28 06:21:00,32.0,-9.0,-100.00,North,0,8.0,14.0,16,0.00,,,0.02,0.000000,,2013-02-28 13:21:00,
2013-02-28 06:31:00,32.0,-9.0,-100.00,North,0,8.0,14.0,16,0.00,,,0.02,0.000000,,2013-02-28 13:31:00,
2013-02-28 07:01:00,30.0,-7.0,-100.00,North,359,9.0,16.0,19,0.00,,,0.02,0.000000,,2013-02-28 14:01:00,
2013-02-28 07:11:00,30.0,-7.0,-100.00,North,359,9.0,16.0,19,0.00,,,0.02,0.000000,,2013-02-28 14:11:00,
2013-02-28 07:21:00,30.0,-7.0,-100.00,North,359,9.0,16.0,19,0.00,,,0.02,0.000000,,2013-02-28 14:21:00,
2013-02-28 07:31:00,30.0,-7.0,-100.00,North,359,9.0,16.0,19,0.00,,,0.02,0.000000,,2013-02-28 14:31:00,
2013-02-28 08:02:00,32.0,-7.0,-100.00,North,4,13.0,21.0,18,0.00,,,0.02,54.000000,,2013-02-28 15:02:00,
2013-02-28 08:11:00,32.0,-7.0,-100.00,North,4,13.0,21.0,18,0.00,,,0.02,54.000000,,2013-02-28 15:11:00,
2013-02-28 08:21:00,32.0,-7.0,-100.00,North,4,13.0,21.0,18,0.00,,,0.02,54.000000,,2013-02-28 15:21:00,
2013-02-28 08:31:00,32.0,-7.0,-100.00,North,4,13.0,21.0,18,0.00,,,0.02,54.000000,,2013-02-28 15:31:00,
2013-02-28 09:01:00,35.0,-7.0,-100.00,North,3,11.0,19.0,16,0.00,,,0.02,325.000000,,2013-02-28 16:01:00,
2013-02-28 09:11:00,35.0,-7.0,-100.00,North,3,11.0,19.0,16,0.00,,,0.02,325.000000,,2013-02-28 16:11:00,
2013-02-28 09:21:00,35.0,-7.0,-100.00,North,3,11.0,19.0,16,0.00,,,0.02,325.000000,,2013-02-28 16:21:00,
2013-02-28 09:31:00,35.0,-7.0,-100.00,North,3,11.0,19.0,16,0.00,,,0.02,325.000000,,2013-02-28 16:31:00,
2013-02-28 10:01:00,38.0,-3.0,-100.00,North,10,9.0,17.0,17,0.00,,,0.02,617.000000,,2013-02-28 17:01:00,
2013-02-28 10:11:00,38.0,-3.0,-100.00,North,10,9.0,17.0,17,0.00,,,0.02,617.000000,,2013-02-28 17:11:00,
2013-02-28 10:21:00,38.0,-3.0,-100.00,North,10,9.0,17.0,17,0.00,,,0.02,617.000000,,2013-02-28 17:21:00,
2013-02-28 10:31:00,38.0,-3.0,-100.00,North,10,9.0,17.0,17,0.00,,,0.02,617.000000,,2013-02-28 17:31:00,
2013-02-28 10:52:00,42.0,-1.0,-100.00,NE,39,11.0,19.0,16,0.00,,,0.02,869.000000,,2013-02-28 17:52:00,
2013-02-28 11:02:00,42.0,-1.0,-100.00,NE,39,11.0,19.0,16,0.00,,,0.02,869.000000,,2013-02-28 18:02:00,
2013-02-28 11:11:00,42.0,-1.0,-100.00,NE,39,11.0,19.0,16,0.00,,,0.02,869.000000,,2013-02-28 18:11:00,
2013-02-28 11:21:00,42.0,-1.0,-100.00,NE,39,11.0,19.0,16,0.00,,,0.02,869.000000,,2013-02-28 18:21:00,
2013-02-28 11:31:00,42.0,-1.0,-100.00,NE,39,11.0,19.0,16,0.00,,,0.02,869.000000,,2013-02-28 18:31:00,
2013-02-28 12:01:00,44.0,-4.0,-100.00,NE,37,10.0,21.0,13,0.00,,,0.02,1046.000000,,2013-02-28 19:01:00,
2013-02-28 12:11:00,44.0,-4.0,-100.00,NE,37,10.0,21.0,13,0.00,,,0.02,1046.000000,,2013-02-28 19:11:00,
2013-02-28 12:21:00,44.0,-4.0,-100.00,NE,37,10.0,21.0,13,0.00,,,0.02,1046.000000,,2013-02-28 19:21:00,
2013-02-28 12:31:00,44.0,-4.0,-100.00,NE,37,10.0,21.0,13,0.00,,,0.02,1046.000000,,2013-02-28 19:31:00,
2013-02-28 13:01:00,46.0,-2.0,-100.00,NE,45,10.0,21.0,13,0.00,,,0.01,1132.000000,,2013-02-28 20:01:00,
2013-02-28 13:12:00,46.0,-2.0,-100.00,NE,45,10.0,21.0,13,0.00,,,0.01,1132.000000,,2013-02-28 20:12:00,
2013-02-28 13:21:00,46.0,-2.0,-100.00,NE,45,10.0,21.0,13,0.00,,,0.01,1132.000000,,2013-02-28 20:21:00,
2013-02-28 13:31:00,46.0,-2.0,-100.00,NE,45,10.0,21.0,13,0.00,,,0.01,1132.000000,,2013-02-28 20:31:00,
2013-02-28 14:01:00,44.0,-7.0,-100.00,NNE,29,10.0,18.0,11,0.00,,,0.01,1136.000000,,2013-02-28 21:01:00,
2013-02-28 14:11:00,44.0,-7.0,-100.00,NNE,29,10.0,18.0,11,0.00,,,0.01,1136.000000,,2013-02-28 21:11:00,
2013-02-28 14:22:00,44.0,-7.0,-100.00,NNE,29,10.0,18.0,11,0.00,,,0.01,1136.000000,,2013-02-28 21:22:00,
2013-02-28 15:01:00,47.0,0.0,-100.00,NE,55,7.0,18.0,14,0.00,,,0.00,1053.000000,,2013-02-28 22:01:00,
2013-02-28 15:11:00,47.0,0.0,-100.00,NE,55,7.0,18.0,14,0.00,,,0.00,1053.000000,,2013-02-28 22:11:00,
2013-02-28 15:21:00,47.0,0.0,-100.00,NE,55,7.0,18.0,14,0.00,,,0.00,1053.000000,,2013-02-28 22:21:00,
2013-02-28 15:31:00,47.0,0.0,-100.00,NE,55,7.0,18.0,14,0.00,,,0.00,1053.000000,,2013-02-28 22:31:00,
2013-02-28 16:01:00,50.0,-1.0,-100.00,North,10,4.0,9.0,12,0.00,,,0.00,876.000000,,2013-02-28 23:01:00,
2013-02-28 16:11:00,50.0,-1.0,-100.00,North,10,4.0,9.0,12,0.00,,,0.00,876.000000,,2013-02-28 23:11:00,
2013-02-28 16:21:00,50.0,-1.0,-100.00,North,10,4.0,9.0,12,0.00,,,0.00,876.000000,,2013-02-28 23:21:00,
2013-02-28 16:31:00,50.0,-1.0,-100.00,North,10,4.0,9.0,12,0.00,,,0.00,876.000000,,2013-02-28 23:31:00,
2013-02-28 17:01:00,51.0,5.0,-100.00,WNW,292,2.0,9.0,15,0.00,,,0.00,630.000000,,2013-03-01 00:01:00,
2013-02-28 17:11:00,51.0,5.0,-100.00,WNW,292,2.0,9.0,15,0.00,,,0.00,630.000000,,2013-03-01 00:11:00,
2013-02-28 17:22:00,51.0,5.0,-100.00,WNW,292,2.0,9.0,15,0.00,,,0.00,630.000000,,2013-03-01 00:22:00,
2013-02-28 17:32:00,51.0,5.0,-100.00,WNW,292,2.0,9.0,15,0.00,,,0.00,630.000000,,2013-03-01 00:32:00,
2013-02-28 17:52:00,44.0,4.0,-100.00,NNW,348,4.0,8.0,19,0.00,,,0.00,339.000000,,2013-03-01 00:52:00,
2013-02-28 18:01:00,44.0,4.0,-100.00,NNW,348,4.0,8.0,19,0.00,,,0.00,339.000000,,2013-03-01 01:01:00,
2013-02-28 18:11:00,44.0,4.0,-100.00,NNW,348,4.0,8.0,19,0.00,,,0.00,339.000000,,2013-03-01 01:11:00,
2013-02-28 18:21:00,44.0,4.0,-100.00,NNW,348,4.0,8.0,19,0.00,,,0.00,339.000000,,2013-03-01 01:21:00,
2013-02-28 18:31:00,44.0,4.0,-100.00,NNW,348,4.0,8.0,19,0.00,,,0.00,339.000000,,2013-03-01 01:31:00,
2013-02-28 18:52:00,36.0,4.0,-100.00,NNE,24,8.0,12.0,26,0.00,,,0.00,60.000000,,2013-03-01 01:52:00,
2013-02-28 19:01:00,36.0,4.0,-100.00,NNE,24,8.0,12.0,26,0.00,,,0.00,60.000000,,2013-03-01 02:01:00,
2013-02-28 19:11:00,36.0,4.0,-100.00,NNE,24,8.0,12.0,26,0.00,,,0.00,60.000000,,2013-03-01 02:11:00,
2013-02-28 19:21:00,36.0,4.0,-100.00,NNE,24,8.0,12.0,26,0.00,,,0.00,60.000000,,2013-03-01 02:21:00,
2013-02-28 19:31:00,36.0,4.0,-100.00,NNE,24,8.0,12.0,26,0.00,,,0.00,60.000000,,2013-03-01 02:31:00,
2013-02-28 19:52:00,36.0,3.0,-100.00,North,11,17.0,30.0,24,0.00,,,0.00,0.000000,,2013-03-01 02:52:00,
2013-02-28 20:01:00,36.0,3.0,-100.00,North,11,17.0,30.0,24,0.00,,,0.00,0.000000,,2013-03-01 03:01:00,
2013-02-28 20:11:00,36.0,3.0,-100.00,North,11,17.0,30.0,24,0.00,,,0.00,0.000000,,2013-03-01 03:11:00,
2013-02-28 20:21:00,36.0,3.0,-100.00,North,11,17.0,30.0,24,0.00,,,0.00,0.000000,,2013-03-01 03:21:00,
2013-02-28 20:32:00,36.0,3.0,-100.00,North,11,17.0,30.0,24,0.00,,,0.00,0.000000,,2013-03-01 03:32:00,
2013-02-28 21:01:00,37.0,2.0,-100.00,North,4,20.0,28.0,22,0.00,,,0.00,0.000000,,2013-03-01 04:01:00,
2013-02-28 21:11:00,37.0,2.0,-100.00,North,4,20.0,28.0,22,0.00,,,0.00,0.000000,,2013-03-01 04:11:00,
2013-02-28 21:21:00,37.0,2.0,-100.00,North,4,20.0,28.0,22,0.00,,,0.00,0.000000,,2013-03-01 04:21:00,
2013-02-28 21:31:00,37.0,2.0,-100.00,North,4,20.0,28.0,22,0.00,,,0.00,0.000000,,2013-03-01 04:31:00,
2013-02-28 21:52:00,36.0,1.0,-100.00,North,3,18.0,28.0,22,0.00,,,0.00,0.000000,,2013-03-01 04:52:00,
2013-02-28 22:02:00,36.0,1.0,-100.00,North,3,18.0,28.0,22,0.00,,,0.00,0.000000,,2013-03-01 05:02:00,
2013-02-28 22:11:00,36.0,1.0,-100.00,North,3,18.0,28.0,22,0.00,,,0.00,0.000000,,2013-03-01 05:11:00,
2013-02-28 22:22:00,36.0,1.0,-100.00,North,3,18.0,28.0,22,0.00,,,0.00,0.000000,,2013-03-01 05:22:00,
2013-02-28 22:32:00,36.0,1.0,-100.00,North,3,18.0,28.0,22,0.00,,,0.00,0.000000,,2013-03-01 05:32:00,
2013-02-28 22:52:00,37.0,-24.0,-100.00,North,7,16.0,25.0,6,0.00,,,-99.99,0.000000,,2013-03-01 05:52:00,
2013-02-28 23:02:00,37.0,-24.0,-100.00,North,7,16.0,25.0,6,0.00,,,-99.99,0.000000,,2013-03-01 06:02:00,
2013-02-28 23:52:00,37.0,-21.0,-100.00,North,5,13.0,22.0,7,0.00,,,0.00,0.000000,,2013-03-01 06:52:00,